[[{"header":{"parameterUnit":"m.s-1","parameterCategory":1,"la1":30.2992,"la2":30.254,"lo1":-89.0895,"lo2":-89.0443,"dy":0.0025,"dx":0.0025,"nx":19,"ny":19,"refTime":"2026-03-11T09:00:00:Z","depth":0,"parameterNumber":2,"parameterNumberName":"U-component_of_WINDS"},"data":[0,0,0,-2.2533,-2.2533,-2.2564,-2.2564,-2.2603,-2.2603,0,0,0,0,0,0,0,0,0,0,0,-2.2524,-2.2524,-2.2533,-2.2533,-2.2564,-2.2564,-2.2603,-2.2603,0,0,0,0,0,0,0,0,0,0,0,-2.2524,-2.2524,-2.2525,-2.2534,-2.2564,-2.2564,-2.2603,-2.258,0,0,0,0,0,0,0,0,0,0,-2.255,-2.2543,-2.2524,-2.2525,-2.2534,-2.2564,-2.2564,-2.2578,-2.2581,-2.2589,0,-2.2597,0,-2.2601,-2.2606,-2.2606,0,0,0,-2.2533,-2.254,-2.2548,-2.2525,-2.2534,-2.2564,-2.255,-2.258,-2.2583,-2.2592,-2.2598,-2.2599,-2.2601,-2.2606,-2.2606,-2.2656,-2.2656,0,0,-2.2531,-2.253,-2.2546,-2.255,-2.2547,-2.2549,-2.2551,-2.2582,-2.2587,-2.2598,-2.26,-2.2602,-2.2606,-2.2607,-2.2656,-2.2656,0,0,0,-2.2527,-2.2529,-2.2536,-2.2549,-2.2554,-2.255,-2.2552,-2.2585,-2.2588,-2.26,-2.2603,-2.2607,-2.2607,-2.2655,-2.2656,-2.2667,0,0,0,-2.2526,-2.2526,-2.2535,-2.2534,-2.2554,-2.2571,-2.2555,-2.2586,-2.2589,-2.2602,-2.2607,-2.2607,-2.2655,-2.2656,-2.2666,-2.2671,0,0,0,-2.2522,-2.2525,-2.253,-2.2534,-2.2548,-2.257,-2.2574,-2.2587,-2.2591,-2.2606,-2.2608,-2.2655,-2.2655,-2.2665,-2.267,-2.2683,0,0,0,-2.2517,-2.254,-2.253,-2.2556,-2.2547,-2.2577,-2.2574,-2.2596,-2.2611,-2.2607,-2.2655,-2.2656,-2.2665,-2.2669,-2.2682,-2.2693,-2.2697,0,0,-2.2545,-2.2543,-2.2558,-2.2551,-2.2582,-2.2573,-2.2605,-2.262,-2.2622,-2.2644,-2.2645,-2.2666,-2.267,-2.2683,-2.2727,-2.273,0,0,0,-2.2566,-2.2577,-2.2586,-2.26,-2.2612,-2.2622,-2.2632,-2.2637,-2.2656,-2.2634,-2.2675,-2.2677,-2.2685,-2.269,-2.2693,-2.2699,-2.2658,-2.2658,-2.2658,-2.2601,-2.2604,-2.2629,-2.2636,-2.2649,-2.2659,-2.267,-2.2679,-2.2677,-2.2687,-2.2693,-2.2719,-2.2725,-2.2728,-2.2734,-2.27,-2.27,-2.27,-2.27,-2.264,-2.2655,-2.2654,-2.2677,-2.2679,-2.2699,-2.2709,-2.2707,-2.2725,-2.2715,-2.2722,-2.2709,-2.2732,-2.2737,-2.2701,-2.2701,-2.2701,-2.2701,-2.2701,-2.2662,-2.267,-2.2677,-2.2697,-2.2712,-2.2718,-2.2735,-2.2737,-2.2739,-2.2746,-2.2751,-2.2751,-2.275,-2.2749,-2.2749,-2.2749,-2.2749,-2.2749,-2.2749,-2.2682,-2.2689,-2.2703,-2.2718,-2.2727,-2.274,-2.275,-2.2759,-2.2769,-2.2768,-2.2768,-2.2765,-2.2734,-2.2725,-2.275,-2.275,-2.275,-2.275,-2.275,-2.2717,-2.2709,-2.2732,-2.2741,-2.2758,-2.2772,-2.2775,-2.2793,-2.28,-2.2808,-2.2804,-2.2782,-2.2779,-2.2777,-2.2769,-2.2804,-2.2804,-2.2804,-2.2804,-2.2734,-2.2734,-2.2757,-2.2771,-2.2785,-2.279,-2.2814,-2.2823,-2.283,-2.2834,-2.283,-2.2821,-2.2819,-2.2818,-2.2814,-2.2807,-2.2851,-2.2851,-2.2851,-2.2755,-2.2756,-2.2777,-2.2785,-2.2798,-2.281,-2.2832,-2.2847,-2.2854,-2.2853,-2.2838,-2.2836,-2.2821,-2.2817,-2.2813,-2.2808,-2.2795,0,0]},{"header":{"parameterUnit":"m.s-1","parameterCategory":1,"la1":30.2992,"la2":30.254,"lo1":-89.0895,"lo2":-89.0443,"dy":0.0025,"dx":0.0025,"nx":19,"ny":19,"refTime":"2026-03-11T09:00:00:Z","depth":0,"parameterNumber":3,"parameterNumberName":"V-component_of_WINDS"},"data":[0,0,0,3.4685,3.4687,3.4808,3.4808,3.4951,3.4952,0,0,0,0,0,0,0,0,0,0,0,3.4641,3.4641,3.4685,3.4688,3.4808,3.4808,3.4951,3.4952,0,0,0,0,0,0,0,0,0,0,0,3.464,3.4641,3.4642,3.4688,3.4807,3.4808,3.495,3.4864,0,0,0,0,0,0,0,0,0,0,3.475,3.4699,3.4641,3.4642,3.4689,3.4807,3.4808,3.486,3.487,3.4891,0,3.4906,0,3.4931,3.4961,3.4961,0,0,0,3.4695,3.4691,3.4732,3.4642,3.469,3.4807,3.4755,3.4866,3.4876,3.4903,3.4908,3.4914,3.4933,3.4962,3.4962,3.506,3.506,0,0,3.4688,3.4658,3.4724,3.4738,3.4716,3.4752,3.4759,3.4872,3.4876,3.4909,3.4917,3.4936,3.4962,3.4963,3.506,3.506,0,0,0,3.4664,3.4653,3.4691,3.4732,3.4754,3.4755,3.4764,3.4871,3.4886,3.4919,3.4937,3.4963,3.4965,3.5059,3.506,3.5036,0,0,0,3.4661,3.4639,3.4687,3.467,3.4752,3.4813,3.4759,3.4878,3.4892,3.4937,3.4963,3.4966,3.5059,3.506,3.5037,3.503,0,0,0,3.4636,3.4636,3.465,3.4668,3.4718,3.4812,3.4834,3.4882,3.4903,3.4961,3.4966,3.5059,3.506,3.5037,3.5031,3.5049,0,0,0,3.4601,3.4627,3.4649,3.4686,3.4717,3.4796,3.4834,3.4894,3.4942,3.4964,3.5059,3.506,3.5037,3.5032,3.5049,3.5058,3.5059,0,0,3.4617,3.4627,3.4652,3.4675,3.4742,3.478,3.4845,3.4918,3.4952,3.5023,3.5025,3.5037,3.5031,3.5049,3.5072,3.5072,0,0,0,3.4647,3.4664,3.4688,3.4731,3.4787,3.4836,3.4902,3.493,3.4991,3.4981,3.5048,3.5046,3.5057,3.5064,3.5064,3.5077,3.5061,3.5061,3.5061,3.4625,3.4667,3.4711,3.4769,3.4811,3.488,3.4919,3.4968,3.4998,3.5014,3.5035,3.5043,3.5049,3.505,3.5063,3.5042,3.5042,3.5042,3.5042,3.4653,3.4685,3.4726,3.4783,3.4829,3.4878,3.4948,3.4968,3.5022,3.503,3.5043,3.5048,3.5049,3.5063,3.5041,3.5041,3.5041,3.5041,3.5042,3.4644,3.4667,3.47,3.4769,3.4819,3.4877,3.4928,3.4968,3.5006,3.5018,3.5047,3.5047,3.5054,3.5029,3.5029,3.5029,3.5029,3.5029,3.5029,3.4622,3.466,3.4697,3.4761,3.4796,3.4847,3.4919,3.4955,3.5006,3.5031,3.5032,3.5062,3.504,3.5034,3.503,3.503,3.503,3.5029,3.5029,3.4636,3.464,3.4697,3.4732,3.4812,3.486,3.4911,3.4982,3.5018,3.5043,3.5071,3.5048,3.5062,3.5062,3.5058,3.506,3.506,3.506,3.506,3.4629,3.464,3.4709,3.4763,3.4821,3.4874,3.4941,3.4999,3.5059,3.5085,3.5091,3.5088,3.5086,3.5102,3.5102,3.5098,3.511,3.5111,3.5111,3.4641,3.466,3.4708,3.4766,3.4833,3.489,3.4955,3.5018,3.5088,3.5114,3.5107,3.5105,3.5101,3.5098,3.5122,3.512,3.5115,0,0]}]]